Regional Weather Roundup
Issued by NWS Cleveland, OH

Home | Current Version | Previous Version | Graphics & Text | Print | Product List | Glossary On
Versions: 1 2 3 4 5 6 7 8 9 10 11 12 13 14 15 16 17 18 19 20 21 22 23 24 25 26 27 28 29 30 31 32 33 34 35 36 37 38 39 40 41 42 43 44 45 46 47 48 49 50
000
ASUS41 KCLE 290810
RWRCLE
OHIO REGIONAL WEATHER ROUNDUP
NATIONAL WEATHER SERVICE WILMINGTON, OH
400 AM EDT SUN MAR 29 2015

NOTE: "FAIR" INDICATES FEW OR NO CLOUDS BELOW 12,000 FEET WITH NO
SIGNIFICANT WEATHER AND/OR OBSTRUCTIONS TO VISIBILITY.

OHZ001>008-015>018-024>027-034-035-043-044-290900-
   NORTHWEST OHIO

CITY           SKY/WX    TMP DP  RH WIND       PRES   REMARKS
DEFIANCE       CLEAR     25  15  66 SW6       30.31F WCI  18
FINDLAY        CLEAR     22  15  75 SW7       30.30F WCI  13
TOLEDO EXPRESS CLEAR     25  13  60 SW7       30.29F WCI  17
TOLEDO EXEC    CLEAR     22  14  71 SW7       30.31F WCI  13
LIMA           CLEAR     24  15  68 S7        30.30F WCI  16
$$

OHZ009>014-019>023-028>033-038-089-290900-
   NORTHEAST OHIO

CITY           SKY/WX    TMP DP  RH WIND       PRES   REMARKS
CLE-HOPKINS    CLEAR     20  12  71 S6        30.33F WCI  12
CLE-LAKEFRONT  CLEAR     23  12  62 S6        30.31F WCI  16
CUY CO. ARPT   NOT AVBL
LORAIN-ELYRIA  FAIR      20  14  77 SW7       30.31S WCI  11
ASHTABULA      CLEAR     18  12  77 CALM      30.29F
AKRON-CANTON   CLEAR     18   9  68 S6        30.29F WCI  10
WOOSTER        CLEAR     19  13  77 SW5       30.30F WCI  12
MANSFIELD      CLEAR     19  11  70 SW7       30.29S WCI  10
YOUNGSTOWN     FAIR      17  10  74 SW5       30.28F WCI  10
$$

OHZ042-051>053-060>062-070>072-077>081-290900-
  SOUTHWEST OHIO

CITY           SKY/WX    TMP DP  RH WIND       PRES   REMARKS
CINC-COVINGTON CLEAR     25  13  60 S3        30.34F
CINC-LUNKEN    CLEAR     21  18  88 CALM      30.38F
HAMILTON       CLEAR     18  15  88 CALM      30.36F
DAYTON         CLEAR     22  15  75 S8        30.33S WCI  12
WRIGHT-PAT AFB CLEAR     21  14  76 CALM      30.34S
DAYTON GENERAL CLEAR     23  14  68 SE7       30.32F WCI  15
WILMINGTON     CLEAR     22  14  71 SE3       30.33F
$$

OHZ036-037-039>041-045>050-054>059-063>069-073>076-082>088-290900-
  CENTRAL AND SOUTHEAST OHIO

CITY           SKY/WX    TMP DP  RH WIND       PRES   REMARKS
COLUMBUS       CLEAR     20  14  77 CALM      30.35S
OSU AIRPORT    CLEAR     21  12  68 S5        30.34S WCI  15
BOLTON FIELD   CLEAR    N/A N/A N/A S6        30.34S
RICKENBACK AFB CLEAR     19  15  82 S3        30.35S
NEWARK         CLEAR     18  13  80 CALM      30.34S
MARION         CLEAR     18  11  74 S7        30.31F WCI   9
LANCASTER      CLEAR     17  12  80 CALM      30.35S
ZANESVILLE     CLEAR     14  10  84 CALM      30.34F
NEW PHILLY     CLEAR     17  11  77 E3        30.34F
$$



USA.gov is the U.S. government's official web portal to all federal, state and local government web resources and services.